Showing default

RESURS O1-N4, 25394

Orbit data source: Space-Track

RESURS O1-N4, 25394 is a payload satellite owned by Priroda (CIS) in SSO that was launched on Fri, 10 Jul 1998 UTC via a ZENIT-2 launch vehicle from the Tyuratam Missile And Space Complex (TTMTR). Payload-class satellites include a variety of spacecraft equipped with specific instruments for various scientific and technological missions. These include communications satellites like Starlink; space stations such as the ISS; scientific satellites like the Hubble; Earth observation satellites from companies like Planet Labs, Umbra, and HawkEye 360; GPS; miniature CubeSats for education and research; and military/defense satellites.

Loading next visibility...
Identifier
25394, 1998-043A
Orbit
SSO
Country
Flag of CISCIS
Related business
Manufacturer
VNIIEM
Mission
Civil Imaging
Bus & Motor
RESURS-O, Unknown motor
Mass
2,444 kg wet, 2,444 kg dry
Launch date (UTC)
1998-07-10 (28 years ago)
Launch vehicle
ZENIT-2
Launch site
Tyuratam Missile And Space Complex (TTMTR)
Object type
Payload
Rocket body
Debris
Shape & HBR
Cyl + 2 Pan, 5.8 m
Radar Cross Section
11.656 m², Large (>1 m²)

Expand to show TLE details & history
Last TLE update: 9 hours ago

TLE from 9 hours ago
0 RESURS O1-N4
1 25394U 98043A   26093.93369650  .00000250  00000-0  12615-3 0  9993
2 25394  98.9371  66.1138 0001589  25.0852 335.0403 14.25101473441759
Epoch: 2026-04-03T22:24Z
TLE epoch observation values (Epoch: 2026-04-03T22:24:31.377Z)
Latitude
-0.00008°
Longitude
-102.27764°
Altitude
810.03 km
Speed
7.449 km/s
True Right ascension
04h 24m 27s
True Declination
0° 00' 00"
Sunlit
Object was in daylight at epoch
Visualization orbit readout
Latitude
Unknown
Longitude
Unknown
Altitude
Unknown
Speed
Unknown
Apparent Right ascension
Unknown
Apparent Declination
Unknown
Sunlit
N/A
Visualization observer readout
Local Sidereal Time
13:03:41
Azimuth
Unknown
Elevation
Unknown
Doppler factor
Unknown
Orbital elements
Apogee altitude
806.456 km
Perigee altitude
804.173 km
Semi-major axis
7,183.451 km
Eccentricity
0.00016
Inclination
98.9371°
RAAN
66.1138°
Arg. of periapsis
25.0852°
True anomaly
335.03261°
Mean anomaly
335.0403°
Eccentric anomaly
335.03646°
Mean motion
3.56487 °/min
Orbital period
100.99 mins
BSTAR
0.00012615
Loading maneuver chart data...
Computing Atmospheric mass density...
Loading historical data...
Loading historical data...
Loading historical data...
Loading historical data...
Loading historical data...
Loading historical data...
Loading historical data...

Documentation

Showing up to 5 results
|